Regional Weather Roundup
Issued by NWS Newport/Morehead, NC

Current Version | Previous Version | Graphics & Text | Print | Product List | Glossary Off
Versions: 1 2 3 4 5 6 7 8 9 10 11 12 13 14 15 16 17 18 19 20 21 22 23 24 25 26 27 28 29 30 31 32 33 34 35 36 37 38 39 40 41 42 43 44 45 46 47 48 49 50

000
ASUS42 KMHX 241613
RWRMHX
WEATHER ROUNDUP FOR EASTERN NORTH CAROLINA
NATIONAL WEATHER SERVICE NEWPORT/MOREHEAD CITY NC
1200 PM EDT SUN JUL 24 2016

NOTE: "FAIR" INDICATES FEW OR NO CLOUDS BELOW 12,000 FEET
WITH NO SIGNIFICANT WEATHER AND/OR OBSTRUCTIONS TO VISIBILITY

NCZ015>017-031-032-045>047-102-103-241700-
NORTH COAST

CITY           SKY/WX    TMP DP  RH WIND       PRES   REMARKS
EDENTON        SUNNY     90  75  61 SW6       30.02S HX 100
ELIZABETH CITY SUNNY     91  75  59 VRB6      30.00F HX 101
KITTY HAWK     SUNNY     93  75  55 SW5       30.01S HX 105
MANTEO           N/A     88  78  71 SW3       30.02S HX 101

$$

NCZ045>047-081-094-103-104-241700-
CENTRAL COAST

CITY           SKY/WX    TMP DP  RH WIND       PRES   REMARKS
FRISCO         SUNNY     85  78  80 SW8       30.04S

$$

NCZ095-097-098-100-101-241700-
SOUTHERN COAST

CITY           SKY/WX    TMP DP  RH WIND       PRES   REMARKS
BEAUFORT       MOSUNNY   87  78  74 SW12G21   30.04F HX 100
CEDAR ISLAND   NOT AVBL
JACKSONVILLE   MOSUNNY   90  76  63 SE5       30.03F HX 101
PINEY ISLAND   MOSUNNY  N/A N/A N/A VRB6      30.03
WILMINGTON     MOSUNNY   90  76  63 CALM      30.04S HX 101


$$

NCZ011>013-027>030-043-044-078>080-089-090>093-098-241700-
COASTAL PLAIN

CITY           SKY/WX    TMP DP  RH WIND       PRES   REMARKS
AHOSKIE        SUNNY     89  79  70 CALM      30.02S HX 104
CLINTON        SUNNY     90  77  66 CALM      30.04S HX 103
ELIZABETHTOWN  MOSUNNY   89  77  67 SW3       30.04S HX 101
GOLDSBORO      SUNNY     92  75  57 S6        30.02S HX 103
GREENVILLE     SUNNY     91  77  62 W3        30.05S HX 105
HAVELOCK       MOSUNNY   91  77  63 SW9       30.04F HX 104
KENANSVILLE    NOT AVBL
KINSTON        SUNNY     91  75  59 SW6       30.04S HX 102
NEW BERN       MOSUNNY   91  77  63 S6        30.04S HX 104
RICHLANDS      MOSUNNY   90  78  68 SW6       30.05S HX 104
ROCKY MOUNT    SUNNY     91  75  59 S6        30.03S HX 101
WASHINGTON     SUNNY     89  77  68 CALM      30.03S HX 101
WHITEVILLE     MOSUNNY   88  76  68 CALM      30.04S

$$

AMZ130-135-150-152-154-156-158-170-250-252-270-ANZ085-086-088-633-658-670-241700-
MARINE OBSERVATIONS

STATION/POSITION TIME  TEMP    WIND        PRES    WAVE   SWELL
                       AIR SEA DIR/SP/G            HT/PER HT/PER
                 (UTC) (F)     (DEG/KT/KT) (MB)    (FT/S) (FT/S)
CHESAPEAKE LIGHT NOT AVBL
64 E VA BEACH    1550   81 81  240/ 10/ 12 1015.8    3/ 5   3/ 5
DUCK             1500   84 60  250/  8/ 11 1015.7
2 E DUCK         1511      69                N/A     1/ 9
OREGON INLET     1500   84 84  230/  5/  6 1016.5
13E OREGON INLT  1600      83                N/A     2/ 9   2/ 9
HATTERAS CG      1500   85 82  210/  8/ 12 1017.0
DIAMOND BUOY     1550   84 86  230/ 12/ 14 1017.3    2/ 9   2/ 9
CAPE LOOKOUT     1600   87     220/ 11/ 13 1017.1
BEAUFORT LAB     1500   86 82  230/  5/ 10 1016.8
30 SE NEW RVR IN 1508   85 85  220/  8/ 12 1017.6
30 SE NEW RVR IN 1525      85                N/A     2/ 9
27 SE WRIGHTSVLE 1508   85 85  220/ 10/ 12 1017.8
5 SE WRIGHTSVLE  1508   84 84  210/ 10/ 12 1018.2
225 S CAPE HAT   1550   84 86   CALM  /  2 1019.1    2/ 9   2/ 9
41 SE CHARLESTON 1550   85 86  220/ 10/ 12 1017.3    3/ 9   2/ 9

$$



USA.gov is the U.S. government's official web portal to all federal, state and local government web resources and services.